RH
24 26 25 25 25 24 24 20 19 16 13 12 12 14 15 16 19 25 27 33 27 33 40 41 49 63 51 50 74 55 38 64 73 40 27 30 26 11 4 3 2 2 2
37 37 33 27 25 21 17 16 14 13 14 14 14 15 19 25 30 32 32 27 33 40 42 43 64 62 54 62 68 60 61 64 74 45 32 31 32 18 8 4 3 3 3
34 31 29 25 22 19 16 15 16 15 15 17 20 21 18 20 27 33 28 34 40 41 47 59 67 64 62 57 72 77 71 82 69 47 41 38 32 28 15 6 5 4 4
33 30 27 23 22 20 18 17 18 22 21 20 14 12 18 29 34 31 36 40 40 46 53 69 63 59 62 63 60 64 76 95 69 52 46 41 36 30 30 14 8 7 6
31 27 25 24 23 22 24 28 26 24 22 13 14 21 28 33 37 38 41 39 44 51 59 70 59 83 86 68 63 68 62 78 70 50 55 52 51 41 28 26 14 11 12
26 27 34 33 31 28 26 28 27 28 26 22 24 31 38 38 40 44 44 58 56 58 78 56 64 93 75 71 89 64 74 74 63 53 62 73 65 58 46 36 39 38 30
36 38 35 33 29 24 22 22 23 25 28 28 29 31 36 43 58 73 95 92 90 97 79 56 77 78 73 83 67 68 69 69 60 63 64 60 66 70 66 54 49 46 51
26 21 19 20 20 20 20 21 21 22 24 28 31 37 48 74 79 74 72 88 100 100 62 71 73 78 76 72 79 77 74 56 61 59 51 50 46 49 61 63 62 57 59
20 19 19 22 22 25 29 30 31 31 34 35 49 63 64 67 64 81 98 77 74 58 52 60 68 73 90 77 69 93 98 83 84 80 70 61 58 45 36 40 49 52 61
24 25 34 57 53 44 46 40 38 41 52 63 59 62 78 91 100 100 100 87 50 52 44 45 60 67 83 81 66 78 100 99 88 74 72 65 60 55 46 33 35 42 43
33 39 77 82 77 85 78 76 72 61 74 85 92 95 100 100 95 78 72 73 64 56 47 44 47 53 67 75 72 81 82 80 75 66 62 58 61 58 46 37 37 44 40
50 51 67 69 63 75 89 93 99 93 86 86 81 66 57 59 60 65 66 56 47 45 49 46 47 51 55 63 61 68 58 63 70 72 61 55 50 46 41 40 40 50 51
47 48 55 61 69 78 80 81 79 63 54 56 62 60 58 60 59 54 52 44 67 74 85 92 88 91 88 96 100 98 58 42 41 42 42 47 42 46 44 53 68 69 74
40 41 41 44 48 47 47 48 50 52 53 61 66 69 62 63 71 76 58 61 64 69 62 56 52 49 42 41 41 43 44 43 41 43 42 37 42 51 55 52 53 50 52
47 47 47 48 47 48 51 52 54 61 63 62 62 65 66 70 73 73 70 74 70 63 58 52 50 52 49 47 50 49 51 52 50 54 52 52 56 57 54 60 55 56 60
59 61 67 73 75 71 69 67 67 63 62 64 61 61 60 63 66 64 61 65 68 64 65 64 73 71 68 75 75 68 62 61 60 60 63 66 69 65 68 66 72 74 66
77 80 81 80 76 72 73 69 64 64 65 66 62 60 61 62 59 57 54 53 50 48 49 56 56 55 58 58 57 60 55 58 51 57 57 59 60 52 51 50 63 65 64
84 81 84 88 85 77 70 69 67 65 61 59 59 64 72 79 80 76 69 68 68 67 70 73 75 73 71 76 74 70 61 58 67 74 79 83 79 82 76 56 62 62 60
64 66 64 62 60 53 50 48 45 45 48 52 48 44 45 48 54 57 64 65 62 61 60 57 58 60 68 69 70 68 75 80 84 88 85 94 99 100 100 100 100 89 64
70 72 64 52 60 58 56 53 49 46 46 54 56 62 65 63 69 70 76 77 70 80 78 80 80 88 93 75 70 65 76 83 74 86 80 87 96 100 100 100 100 100 81
96 96 94 95 84 72 51 58 73 76 77 82 84 83 84 94 94 93 91 94 81 75 76 76 69 66 68 71 67 70 72 74 89 75 58 55 59 66 62 56 64 58 50
64 58 58 62 66 82 79 61 58 54 60 74 90 92 86 77 75 74 78 84 90 97 100 100 100 100 100 100 97 78 65 56 49 54 46 34 30 29 29 28 26 25 24
56 53 50 49 51 56 57 62 69 72 73 68 70 73 77 92 100 100 100 100 99 100 94 90 90 96 85 49 32 28 25 25 22 24 23 23 20 18 19 16 17 17 18
60 61 63 62 62 65 66 66 69 69 71 72 83 95 99 100 98 96 93 85 89 79 77 62 42 34 25 25 20 18 17 15 15 15 14 13 12 12 13 13 13 14 16
46 48 57 80 98 100 100 99 98 90 87 87 94 99 100 100 100 96 94 87 60 36 27 26 21 20 19 19 19 17 14 13 11 9 9 9 9 9 9 9 9 10 11
47 43 33 36 55 82 96 100 97 75 74 70 72 73 71 62 53 51 48 32 22 19 18 18 16 14 12 11 10 10 9 8 8 7 8 8 8 8 9 9 8 8 9
Wind_Speed
80 80 80 75 69 68 67 68 67 70 71 74 73 72 73 70 64 52 43 38 33 20 19 18 16 15 13 8 12 17 20 28 36 43 49 54 62 61 45 32 26 23 21
78 78 73 68 66 62 62 63 66 68 70 70 71 70 66 60 49 40 37 32 21 20 19 19 17 15 11 8 13 20 24 29 35 44 49 53 58 62 49 31 22 16 11
69 66 64 63 63 62 64 65 65 65 65 63 61 63 61 53 44 38 29 20 21 21 19 18 17 15 11 10 14 20 25 31 35 42 48 52 52 57 53 35 22 11 4
66 65 63 62 62 62 62 61 59 55 54 55 56 46 36 28 27 23 20 20 22 20 18 17 19 15 13 14 16 19 23 29 35 40 46 49 52 50 52 41 23 12 11
65 63 60 59 58 57 53 50 49 44 43 42 33 23 17 14 17 20 21 23 22 20 20 20 19 14 15 17 18 19 23 27 33 37 41 44 47 50 47 46 32 20 16
58 54 52 51 49 46 42 39 38 34 32 21 11 7 11 16 19 21 22 20 18 21 22 23 19 16 17 18 18 20 22 25 31 32 35 38 41 44 46 43 40 36 26
46 45 43 39 38 35 32 29 27 25 21 15 10 10 15 19 21 21 19 20 19 20 25 24 21 20 20 19 22 23 24 26 28 33 34 34 36 35 38 39 36 32 30
38 36 31 28 25 22 20 17 15 10 7 6 11 15 18 21 17 17 19 21 22 25 25 25 26 26 24 24 28 27 29 30 32 33 35 38 36 37 33 31 33 30 24
23 21 18 16 15 12 8 6 5 5 7 10 14 13 16 18 20 21 22 24 27 28 27 29 32 30 31 31 33 30 32 35 37 37 38 39 41 40 39 37 32 30 25
15 14 8 4 3 3 3 4 8 7 9 10 13 17 17 18 21 22 26 29 30 31 34 34 35 35 36 36 34 34 35 39 40 43 43 43 45 46 45 40 38 35 31
6 9 9 8 7 6 7 8 9 11 13 15 18 21 23 23 27 31 33 36 36 38 36 38 40 41 43 41 40 40 45 47 46 47 48 47 48 49 49 47 44 42 39
9 12 14 15 16 15 16 17 20 22 23 23 26 28 31 33 35 37 38 37 37 37 38 41 44 44 46 47 48 51 52 54 54 56 56 54 53 53 53 49 46 46 46
21 22 22 23 23 24 25 26 29 31 33 34 35 35 35 36 38 39 39 39 40 42 43 44 45 49 51 53 54 57 59 60 62 64 65 63 62 61 59 56 53 53 54
26 25 27 30 31 31 33 34 36 37 38 41 42 44 44 45 45 45 45 44 51 53 54 54 56 58 59 61 63 65 67 68 65 63 63 64 65 65 64 64 65 65 63
33 36 37 38 40 42 43 44 46 47 49 50 52 53 53 54 56 57 57 59 60 60 60 63 65 66 66 66 66 67 67 69 70 70 69 70 71 71 71 72 73 71 70
46 45 44 46 48 50 52 53 53 54 55 58 59 60 61 63 64 65 65 66 68 67 69 71 71 71 71 71 71 70 70 70 72 74 74 75 76 75 76 77 78 78 77
57 59 60 61 60 60 60 61 62 62 63 64 64 65 67 68 68 68 69 70 73 75 76 76 76 76 76 77 78 78 79 78 81 82 83 83 83 83 82 81 82 83 83
64 65 65 67 67 68 68 69 69 70 70 71 71 72 74 74 75 74 75 77 79 81 83 84 85 87 87 88 88 88 88 90 93 94 94 94 94 92 91 92 94 92 92
71 70 70 73 75 74 74 75 76 78 79 80 80 79 79 78 79 82 87 86 86 88 90 91 91 91 94 95 96 95 97 99 101 103 104 104 104 103 101 100 101 103 102
80 81 82 87 83 83 84 85 84 83 85 86 87 86 86 88 90 92 92 94 94 96 97 98 98 103 106 104 105 105 105 106 107 110 111 110 110 111 111 110 112 112 113
90 91 92 94 96 96 92 90 92 97 94 91 93 94 97 97 98 100 102 103 103 103 104 105 108 109 110 111 113 114 114 115 117 119 120 120 118 118 120 119 118 118 116
99 99 98 99 101 104 104 102 101 99 99 100 101 103 105 106 105 104 106 108 111 113 116 118 121 124 127 128 128 126 125 124 122 124 124 121 120 119 118 117 115 114 110
107 109 108 108 109 111 110 111 111 110 109 108 108 110 111 114 118 120 121 122 125 125 125 127 127 129 133 133 131 127 123 121 117 116 115 115 114 111 110 108 107 107 106
117 115 114 115 115 117 118 117 118 116 115 116 119 122 123 125 126 127 128 128 132 132 133 133 130 127 124 125 121 119 116 112 110 106 103 104 106 105 102 100 98 97 98
118 120 121 122 125 127 128 129 129 126 124 124 125 128 130 133 134 135 136 135 134 130 127 126 124 122 120 120 115 113 111 110 108 104 101 100 98 97 97 95 93 90 89
123 120 120 121 123 126 129 135 135 132 130 126 127 127 129 129 129 128 129 129 124 122 121 119 116 113 112 111 110 109 108 105 104 102 99 96 95 91 90 89 89 85 84
Wind_Direction
289 291 289 289 288 286 285 284 284 284 282 282 284 285 284 284 287 288 285 287 284 250 232 231 228 234 251 275 324 331 335 346 339 344 349 352 342 338 333 320 307 291 265
290 292 291 289 287 286 284 283 282 282 286 287 286 285 283 283 283 281 283 277 241 227 221 224 227 235 254 294 327 333 340 343 341 347 349 355 354 349 345 341 330 304 264
293 290 287 285 285 285 283 284 288 287 287 288 287 286 284 282 275 273 269 232 224 215 217 221 236 235 255 292 319 332 338 342 343 347 351 357 4 359 355 354 350 323 259
289 285 284 285 287 287 288 289 288 288 291 292 290 286 280 266 260 247 220 212 208 213 214 225 227 236 272 293 308 322 335 339 343 346 350 358 4 11 9 5 12 46 81
288 290 291 291 289 288 287 287 289 291 295 297 290 278 262 235 213 202 202 204 207 212 223 232 235 257 277 291 301 318 325 334 339 347 351 359 4 10 16 16 10 30 51
291 293 292 291 291 289 288 288 288 290 294 295 283 230 198 188 186 188 195 203 214 222 236 238 244 267 274 281 295 310 321 331 335 343 352 356 1 6 13 20 27 28 26
291 291 289 289 289 289 286 284 287 287 277 271 244 190 172 173 182 192 204 214 229 244 252 242 253 265 270 282 294 305 313 323 332 336 341 348 351 359 4 7 13 26 32
288 286 288 288 289 287 288 290 284 268 245 205 175 165 176 185 199 212 225 231 243 256 251 250 259 266 274 283 291 297 306 314 321 326 330 333 339 341 347 353 358 359 10
288 291 289 286 283 277 274 267 238 197 167 176 173 184 197 207 215 223 237 247 256 265 258 257 261 270 276 283 286 295 302 306 311 314 317 322 327 329 333 337 336 340 342
290 284 256 215 209 174 187 190 184 192 199 213 217 223 232 241 244 259 260 260 272 276 266 261 260 267 271 283 285 296 298 299 302 305 310 314 316 321 323 324 328 325 325
265 225 214 229 249 249 245 253 244 242 250 250 251 254 256 262 263 263 265 266 274 275 275 270 272 273 275 281 284 292 296 297 298 301 304 307 307 308 314 314 316 318 315
240 243 243 250 257 259 256 256 256 256 261 266 271 271 271 270 273 275 273 275 280 279 282 278 276 277 278 281 282 288 294 293 293 296 298 299 303 303 305 306 304 306 307
266 262 259 263 267 271 269 272 274 276 274 274 275 274 274 275 278 279 279 277 282 284 280 281 281 281 283 285 283 286 290 290 289 289 292 294 297 299 301 300 300 299 299
282 283 281 279 275 276 278 280 280 279 276 278 278 280 279 280 280 280 276 269 278 280 281 279 281 281 283 284 284 285 287 288 289 289 289 291 294 296 298 298 297 296 294
280 281 281 278 276 278 278 278 278 279 278 280 279 278 279 280 281 280 280 277 278 279 279 282 283 282 281 282 284 285 286 288 289 290 290 292 293 293 292 293 293 293 291
284 282 279 278 278 278 279 279 279 278 278 277 276 276 276 277 278 278 278 278 278 278 278 280 281 281 281 283 284 284 284 285 286 286 286 286 286 286 288 288 289 290 289
280 282 283 283 284 283 282 282 280 280 281 281 280 279 279 280 279 279 279 278 278 279 280 280 281 282 282 281 281 281 281 282 284 285 285 286 287 285 285 287 287 288 286
278 278 279 279 280 280 281 282 282 282 283 283 282 281 281 281 282 282 284 284 283 283 282 282 282 282 283 282 282 281 281 282 283 283 283 283 284 285 284 285 286 287 285
277 277 279 283 283 282 281 281 283 284 283 282 282 282 282 281 283 282 284 283 281 282 282 281 282 282 282 282 281 280 281 281 282 282 281 281 281 281 281 282 282 283 283
277 277 277 282 282 281 280 278 279 280 280 280 280 280 280 279 280 281 281 280 280 281 281 280 280 279 281 280 280 280 279 278 277 276 276 276 276 277 277 277 278 279 279
277 278 279 279 279 280 280 278 277 279 279 279 278 278 279 279 279 280 280 281 282 282 282 283 283 282 281 280 278 277 277 277 278 278 276 274 273 274 274 275 276 276 278
276 276 275 275 276 276 277 279 278 278 278 278 277 277 277 280 282 283 283 284 285 285 286 286 285 284 283 282 280 279 279 279 279 279 279 279 279 278 279 279 280 280 280
280 279 278 278 278 278 278 279 279 279 280 280 280 280 281 281 283 283 284 285 285 284 283 283 282 282 283 283 283 282 282 281 281 280 280 280 280 279 279 279 279 280 279
280 280 279 278 279 281 281 281 281 281 281 282 281 282 283 283 284 283 282 282 283 282 282 282 282 282 282 282 284 284 284 284 282 281 280 281 281 280 279 280 279 279 279
281 281 281 279 278 278 280 281 282 282 282 282 282 282 281 281 281 282 283 283 283 283 283 282 281 282 282 281 281 281 282 282 282 282 281 280 279 279 279 279 279 278 278
282 282 283 280 279 279 279 279 280 280 280 280 280 280 280 280 280 280 280 281 282 283 283 283 282 281 281 280 279 280 280 280 280 280 280 279 279 279 278 278 278 278 277